Time,TemperatureF,DewpointF,PressureIn,WindDirection,WindDirectionDegrees,WindSpeedMPH,WindSpeedGustMPH,Humidity,HourlyPrecipIn,Conditions,Clouds,dailyrainin,SoftwareType,DateUTC
2013-01-11 00:00:00,47.8,42.6,30.40,NE,37,5.0,9.0,82,0.00,,---,0.00,VWS V14.01,2013-01-11 05:00:00,
2013-01-11 00:03:00,47.8,42.6,30.40,NE,40,4.0,11.0,82,0.00,,---,0.00,VWS V14.01,2013-01-11 05:03:00,
2013-01-11 00:08:00,47.8,42.6,30.39,NE,42,5.0,11.0,82,0.00,,---,0.00,VWS V14.01,2013-01-11 05:08:00,
2013-01-11 00:13:00,47.8,42.6,30.39,NE,42,7.0,12.0,82,0.00,,---,0.00,VWS V14.01,2013-01-11 05:13:00,
2013-01-11 00:18:00,47.9,42.7,30.39,NE,38,5.0,11.0,82,0.00,,---,0.00,VWS V14.01,2013-01-11 05:18:00,
2013-01-11 00:23:00,47.9,42.7,30.39,NE,42,5.0,12.0,82,0.00,,---,0.00,VWS V14.01,2013-01-11 05:23:00,
2013-01-11 00:28:00,48.1,43.2,30.39,NE,36,6.0,12.0,83,0.00,,---,0.00,VWS V14.01,2013-01-11 05:28:00,
2013-01-11 00:33:00,48.1,43.2,30.39,NE,37,11.0,13.0,83,0.00,,---,0.00,VWS V14.01,2013-01-11 05:33:00,
2013-01-11 00:38:00,48.2,43.3,30.38,NNE,29,5.0,12.0,83,0.00,,---,0.00,VWS V14.01,2013-01-11 05:38:00,
2013-01-11 00:43:00,48.3,43.4,30.38,NE,34,4.0,11.0,83,0.00,,---,0.00,VWS V14.01,2013-01-11 05:43:00,
2013-01-11 00:48:00,48.3,43.4,30.38,NE,40,11.0,14.0,83,0.00,,---,0.00,VWS V14.01,2013-01-11 05:48:00,
2013-01-11 00:53:00,48.3,43.4,30.38,NE,40,7.0,14.0,83,0.00,,---,0.00,VWS V14.01,2013-01-11 05:53:00,
2013-01-11 00:58:00,48.3,43.4,30.38,NE,42,9.0,12.0,83,0.00,,---,0.00,VWS V14.01,2013-01-11 05:58:00,
2013-01-11 01:03:00,48.3,43.4,30.38,NE,42,12.0,15.0,83,0.00,,---,0.00,VWS V14.01,2013-01-11 06:03:00,
2013-01-11 01:08:00,48.4,43.5,30.38,NE,43,11.0,14.0,83,0.00,,---,0.00,VWS V14.01,2013-01-11 06:08:00,
2013-01-11 01:13:00,48.5,43.6,30.38,NNE,28,8.0,11.0,83,0.00,,---,0.00,VWS V14.01,2013-01-11 06:13:00,
2013-01-11 01:18:00,48.6,43.7,30.38,NNE,23,8.0,11.0,83,0.00,,---,0.00,VWS V14.01,2013-01-11 06:18:00,
2013-01-11 01:23:00,48.5,43.6,30.38,NNE,30,6.0,10.0,83,0.00,,---,0.00,VWS V14.01,2013-01-11 06:23:00,
2013-01-11 01:28:00,48.5,43.9,30.38,NE,36,8.0,13.0,84,0.00,,---,0.00,VWS V14.01,2013-01-11 06:28:00,
2013-01-11 01:33:00,48.5,43.9,30.38,NNE,32,9.0,14.0,84,0.00,,---,0.00,VWS V14.01,2013-01-11 06:33:00,
2013-01-11 01:38:00,48.5,43.9,30.37,NE,43,10.0,13.0,84,0.00,,---,0.00,VWS V14.01,2013-01-11 06:38:00,
2013-01-11 01:43:00,48.6,44.0,30.37,NE,38,11.0,12.0,84,0.00,,---,0.00,VWS V14.01,2013-01-11 06:43:00,
2013-01-11 01:48:00,48.6,44.0,30.37,NNE,30,4.0,14.0,84,0.00,,---,0.00,VWS V14.01,2013-01-11 06:48:00,
2013-01-11 01:53:00,48.6,44.3,30.37,NE,44,10.0,14.0,85,0.00,,---,0.00,VWS V14.01,2013-01-11 06:53:00,
2013-01-11 01:58:00,48.7,44.4,30.37,NE,51,9.0,14.0,85,0.00,,---,0.00,VWS V14.01,2013-01-11 06:58:00,
2013-01-11 02:03:00,48.8,44.5,30.37,NE,48,7.0,12.0,85,0.00,,---,0.00,VWS V14.01,2013-01-11 07:03:00,
2013-01-11 02:08:00,48.9,44.6,30.36,NE,42,7.0,11.0,85,0.00,,---,0.00,VWS V14.01,2013-01-11 07:08:00,
2013-01-11 02:13:00,48.9,44.6,30.36,NE,50,12.0,12.0,85,0.00,,---,0.00,VWS V14.01,2013-01-11 07:13:00,
2013-01-11 02:18:00,48.9,44.6,30.36,NNE,30,11.0,14.0,85,0.00,,---,0.00,VWS V14.01,2013-01-11 07:18:00,
2013-01-11 02:23:00,48.9,44.6,30.36,NE,53,10.0,13.0,85,0.00,,---,0.00,VWS V14.01,2013-01-11 07:23:00,
2013-01-11 02:28:00,48.9,44.6,30.36,NE,49,9.0,13.0,85,0.00,,---,0.00,VWS V14.01,2013-01-11 07:28:00,
2013-01-11 02:33:00,48.9,44.6,30.36,ENE,59,10.0,11.0,85,0.00,,---,0.00,VWS V14.01,2013-01-11 07:33:00,
2013-01-11 02:38:00,48.8,44.5,30.35,NE,55,5.0,11.0,85,0.00,,---,0.00,VWS V14.01,2013-01-11 07:38:00,
2013-01-11 02:43:00,48.8,44.5,30.35,NE,53,6.0,10.0,85,0.00,,---,0.00,VWS V14.01,2013-01-11 07:43:00,
2013-01-11 02:48:00,48.9,44.9,30.35,NE,38,5.0,9.0,86,0.00,,---,0.00,VWS V14.01,2013-01-11 07:48:00,
2013-01-11 02:53:00,48.8,44.8,30.35,NE,46,9.0,9.0,86,0.00,,---,0.00,VWS V14.01,2013-01-11 07:53:00,
2013-01-11 02:58:00,48.9,44.9,30.35,NE,54,4.0,10.0,86,0.00,,---,0.00,VWS V14.01,2013-01-11 07:58:00,
2013-01-11 03:03:00,48.9,44.9,30.35,NE,52,7.0,12.0,86,0.00,,---,0.00,VWS V14.01,2013-01-11 08:03:00,
2013-01-11 03:08:00,48.8,44.8,30.34,NE,55,0.0,10.0,86,0.00,,---,0.00,VWS V14.01,2013-01-11 08:08:00,
2013-01-11 03:13:00,48.9,44.9,30.34,NE,49,0.0,8.0,86,0.00,,---,0.00,VWS V14.01,2013-01-11 08:13:00,
2013-01-11 03:18:00,48.8,45.1,30.34,NE,46,3.0,6.0,87,0.00,,---,0.00,VWS V14.01,2013-01-11 08:18:00,
2013-01-11 03:23:00,48.9,45.2,30.33,NE,43,2.0,9.0,87,0.00,,---,0.00,VWS V14.01,2013-01-11 08:23:00,
2013-01-11 03:28:00,48.9,45.2,30.33,NE,43,3.0,6.0,87,0.00,,---,0.00,VWS V14.01,2013-01-11 08:28:00,
2013-01-11 03:33:00,48.8,45.1,30.33,NE,43,1.0,7.0,87,0.00,,---,0.00,VWS V14.01,2013-01-11 08:33:00,
2013-01-11 03:38:00,48.8,45.1,30.33,NNE,23,4.0,7.0,87,0.00,,---,0.00,VWS V14.01,2013-01-11 08:38:00,
2013-01-11 03:43:00,48.7,45.0,30.33,NNE,30,5.0,6.0,87,0.00,,---,0.00,VWS V14.01,2013-01-11 08:43:00,
2013-01-11 03:48:00,48.6,45.2,30.33,NNE,26,6.0,7.0,88,0.00,,---,0.00,VWS V14.01,2013-01-11 08:48:00,
2013-01-11 03:53:00,48.6,45.2,30.33,NNE,24,5.0,7.0,88,0.00,,---,0.00,VWS V14.01,2013-01-11 08:53:00,
2013-01-11 03:58:00,48.7,45.3,30.33,NNE,22,7.0,9.0,88,0.00,,---,0.00,VWS V14.01,2013-01-11 08:58:00,
2013-01-11 04:03:00,48.7,45.3,30.33,NNE,29,5.0,7.0,88,0.00,,---,0.00,VWS V14.01,2013-01-11 09:03:00,
2013-01-11 04:08:00,48.7,45.3,30.32,NNE,21,7.0,9.0,88,0.00,,---,0.00,VWS V14.01,2013-01-11 09:08:00,
2013-01-11 04:13:00,48.7,45.3,30.32,NNE,19,6.0,8.0,88,0.00,,---,0.00,VWS V14.01,2013-01-11 09:13:00,
2013-01-11 04:18:00,48.7,45.3,30.32,NNE,25,5.0,10.0,88,0.00,,---,0.00,VWS V14.01,2013-01-11 09:18:00,
2013-01-11 04:23:00,48.6,45.2,30.31,NNE,16,6.0,10.0,88,0.00,,---,0.00,VWS V14.01,2013-01-11 09:23:00,
2013-01-11 04:28:00,48.6,45.5,30.31,NNE,19,6.0,10.0,89,0.00,,---,0.00,VWS V14.01,2013-01-11 09:28:00,
2013-01-11 04:33:00,48.7,45.6,30.31,NNE,12,9.0,12.0,89,0.00,,---,0.00,VWS V14.01,2013-01-11 09:33:00,
2013-01-11 04:38:00,48.7,45.6,30.31,NNE,19,7.0,11.0,89,0.00,,---,0.00,VWS V14.01,2013-01-11 09:38:00,
2013-01-11 04:43:00,48.8,45.7,30.31,NNE,22,7.0,10.0,89,0.00,,---,0.00,VWS V14.01,2013-01-11 09:43:00,
2013-01-11 04:48:00,48.8,45.7,30.31,NNE,26,6.0,10.0,89,0.00,,---,0.00,VWS V14.01,2013-01-11 09:48:00,
2013-01-11 04:53:00,48.8,45.7,30.32,NE,34,5.0,10.0,89,0.00,,---,0.00,VWS V14.01,2013-01-11 09:53:00,
2013-01-11 04:58:00,49.0,45.9,30.32,NNE,28,5.0,9.0,89,0.00,,---,0.00,VWS V14.01,2013-01-11 09:58:00,
2013-01-11 05:03:00,49.0,45.9,30.32,NE,41,8.0,10.0,89,0.00,,---,0.00,VWS V14.01,2013-01-11 10:03:00,
2013-01-11 05:08:00,49.1,46.0,30.31,NE,37,5.0,9.0,89,0.00,,---,0.00,VWS V14.01,2013-01-11 10:08:00,
2013-01-11 05:13:00,49.2,46.1,30.31,NNE,23,7.0,9.0,89,0.00,,---,0.00,VWS V14.01,2013-01-11 10:13:00,
2013-01-11 05:18:00,49.3,46.2,30.31,NNE,15,7.0,9.0,89,0.00,,---,0.00,VWS V14.01,2013-01-11 10:18:00,
2013-01-11 05:23:00,49.4,46.6,30.31,NNE,17,6.0,8.0,90,0.00,,---,0.00,VWS V14.01,2013-01-11 10:23:00,
2013-01-11 05:28:00,49.4,46.6,30.31,NNE,28,5.0,11.0,90,0.00,,---,0.00,VWS V14.01,2013-01-11 10:28:00,
2013-01-11 05:33:00,49.5,46.7,30.31,NNE,24,5.0,9.0,90,0.00,,---,0.00,VWS V14.01,2013-01-11 10:33:00,
2013-01-11 05:38:00,49.5,46.7,30.31,NNE,24,5.0,10.0,90,0.00,,---,0.00,VWS V14.01,2013-01-11 10:38:00,
2013-01-11 05:43:00,49.6,46.8,30.31,NE,38,3.0,9.0,90,0.00,,---,0.00,VWS V14.01,2013-01-11 10:43:00,
2013-01-11 05:48:00,49.7,46.9,30.31,NNE,24,5.0,7.0,90,0.00,,---,0.00,VWS V14.01,2013-01-11 10:48:00,
2013-01-11 05:53:00,49.9,47.1,30.31,NNE,23,6.0,10.0,90,0.00,,---,0.00,VWS V14.01,2013-01-11 10:53:00,
2013-01-11 05:58:00,49.9,47.1,30.31,NE,36,6.0,8.0,90,0.00,,---,0.00,VWS V14.01,2013-01-11 10:58:00,
2013-01-11 06:03:00,50.1,47.3,30.31,NE,40,1.0,10.0,90,0.00,,---,0.00,VWS V14.01,2013-01-11 11:03:00,
2013-01-11 06:08:00,50.1,47.3,30.30,NE,43,5.0,9.0,90,0.00,,---,0.00,VWS V14.01,2013-01-11 11:08:00,
2013-01-11 06:13:00,50.3,47.5,30.30,NE,39,0.0,9.0,90,0.00,,---,0.00,VWS V14.01,2013-01-11 11:13:00,
2013-01-11 06:18:00,50.5,48.0,30.30,NE,40,4.0,9.0,91,0.00,,---,0.00,VWS V14.01,2013-01-11 11:18:00,
2013-01-11 06:23:00,50.4,47.6,30.30,NE,43,5.0,10.0,90,0.00,,---,0.00,VWS V14.01,2013-01-11 11:23:00,
2013-01-11 06:28:00,50.4,47.6,30.30,NE,42,5.0,9.0,90,0.00,,---,0.00,VWS V14.01,2013-01-11 11:28:00,
2013-01-11 06:33:00,50.5,48.0,30.30,NE,43,6.0,9.0,91,0.00,,---,0.00,VWS V14.01,2013-01-11 11:33:00,
2013-01-11 06:38:00,50.6,48.1,30.30,NE,48,7.0,10.0,91,0.00,,---,0.00,VWS V14.01,2013-01-11 11:38:00,
2013-01-11 06:43:00,50.7,48.2,30.30,NE,43,5.0,9.0,91,0.00,,---,0.00,VWS V14.01,2013-01-11 11:43:00,
2013-01-11 06:48:00,50.8,48.3,30.30,NE,47,5.0,10.0,91,0.00,,---,0.00,VWS V14.01,2013-01-11 11:48:00,
2013-01-11 06:53:00,50.8,48.3,30.31,NE,36,0.0,7.0,91,0.00,,---,0.00,VWS V14.01,2013-01-11 11:53:00,
2013-01-11 06:58:00,50.8,48.3,30.31,NNE,29,4.0,7.0,91,0.00,,---,0.00,VWS V14.01,2013-01-11 11:58:00,
2013-01-11 07:03:00,50.6,48.1,30.31,NNE,24,5.0,7.0,91,0.00,,---,0.00,VWS V14.01,2013-01-11 12:03:00,
2013-01-11 07:08:00,50.6,48.1,30.31,NNE,30,3.0,6.0,91,0.00,,---,0.00,VWS V14.01,2013-01-11 12:08:00,
2013-01-11 07:13:00,50.7,48.2,30.31,NE,38,3.0,6.0,91,0.00,,---,0.00,VWS V14.01,2013-01-11 12:13:00,
2013-01-11 07:18:00,50.8,48.3,30.31,NE,40,4.0,6.0,91,0.00,,---,0.00,VWS V14.01,2013-01-11 12:18:00,
2013-01-11 07:23:00,51.0,48.8,30.31,NE,40,0.0,4.0,92,0.00,,---,0.00,VWS V14.01,2013-01-11 12:23:00,
2013-01-11 07:28:00,51.1,48.6,30.31,NE,40,4.0,5.0,91,0.00,,---,0.00,VWS V14.01,2013-01-11 12:28:00,
2013-01-11 07:33:00,51.2,48.7,30.31,NE,45,0.0,8.0,91,0.00,,---,0.00,VWS V14.01,2013-01-11 12:33:00,
2013-01-11 07:38:00,51.3,48.8,30.32,NE,36,0.0,7.0,91,0.00,,---,0.00,VWS V14.01,2013-01-11 12:38:00,
2013-01-11 07:43:00,51.5,49.3,30.32,NE,41,5.0,9.0,92,0.00,,---,0.00,VWS V14.01,2013-01-11 12:43:00,
2013-01-11 07:48:00,51.8,49.5,30.32,NE,49,7.0,11.0,92,0.00,,---,0.00,VWS V14.01,2013-01-11 12:48:00,
2013-01-11 07:53:00,51.9,49.7,30.31,NE,51,6.0,10.0,92,0.00,,---,0.00,VWS V14.01,2013-01-11 12:53:00,
2013-01-11 07:58:00,51.9,49.7,30.31,NE,43,5.0,11.0,92,0.00,,---,0.00,VWS V14.01,2013-01-11 12:58:00,
2013-01-11 08:03:00,52.2,50.0,30.31,NE,47,6.0,9.0,92,0.00,,---,0.00,VWS V14.01,2013-01-11 13:03:00,
2013-01-11 08:08:00,52.6,50.3,30.31,NE,49,6.0,8.0,92,0.00,,---,0.00,VWS V14.01,2013-01-11 13:08:00,
2013-01-11 08:13:00,53.1,50.8,30.31,NE,49,0.0,8.0,92,0.00,,---,0.00,VWS V14.01,2013-01-11 13:13:00,
2013-01-11 08:18:00,53.3,50.7,30.31,NE,49,0.0,6.0,91,0.00,,---,0.00,VWS V14.01,2013-01-11 13:18:00,
2013-01-11 08:23:00,53.7,51.4,30.31,NE,49,4.0,5.0,92,0.00,,---,0.00,VWS V14.01,2013-01-11 13:23:00,
2013-01-11 08:28:00,54.7,52.4,30.31,NE,51,0.0,6.0,92,0.00,,---,0.00,VWS V14.01,2013-01-11 13:28:00,
2013-01-11 08:33:00,55.9,53.6,30.31,ENE,59,0.0,6.0,92,0.00,,---,0.00,VWS V14.01,2013-01-11 13:33:00,
2013-01-11 08:38:00,57.1,54.5,30.31,ENE,77,2.0,9.0,91,0.00,,---,0.00,VWS V14.01,2013-01-11 13:38:00,
2013-01-11 08:43:00,57.6,54.7,30.31,ENE,77,0.0,5.0,90,0.00,,---,0.00,VWS V14.01,2013-01-11 13:43:00,
2013-01-11 08:48:00,58.0,54.8,30.31,ENE,76,5.0,7.0,89,0.00,,---,0.00,VWS V14.01,2013-01-11 13:48:00,
2013-01-11 08:53:00,58.8,55.6,30.32,ENE,76,3.0,4.0,89,0.00,,---,0.00,VWS V14.01,2013-01-11 13:53:00,
2013-01-11 08:58:00,59.9,56.0,30.32,East,99,10.0,11.0,87,0.00,,---,0.00,VWS V14.01,2013-01-11 13:58:00,
2013-01-11 09:03:00,60.2,55.7,30.32,East,99,11.0,11.0,85,0.00,,---,0.00,VWS V14.01,2013-01-11 14:03:00,
2013-01-11 09:08:00,60.0,55.5,30.32,East,99,9.0,12.0,85,0.00,,---,0.00,VWS V14.01,2013-01-11 14:08:00,
2013-01-11 09:13:00,60.0,55.2,30.32,East,101,9.0,11.0,84,0.00,,---,0.00,VWS V14.01,2013-01-11 14:13:00,
2013-01-11 09:18:00,59.6,54.8,30.32,ESE,103,9.0,11.0,84,0.00,,---,0.00,VWS V14.01,2013-01-11 14:18:00,
2013-01-11 09:23:00,59.1,54.6,30.32,ESE,105,10.0,11.0,85,0.00,,---,0.00,VWS V14.01,2013-01-11 14:23:00,
2013-01-11 09:28:00,58.6,54.1,30.32,ESE,105,9.0,10.0,85,0.00,,---,0.00,VWS V14.01,2013-01-11 14:28:00,
2013-01-11 09:33:00,58.1,53.9,30.32,ESE,105,8.0,9.0,86,0.00,,---,0.00,VWS V14.01,2013-01-11 14:33:00,
2013-01-11 09:38:00,57.4,53.2,30.32,ESE,105,6.0,7.0,86,0.00,,---,0.00,VWS V14.01,2013-01-11 14:38:00,
2013-01-11 09:43:00,56.9,53.1,30.32,ESE,105,6.0,7.0,87,0.00,,---,0.00,VWS V14.01,2013-01-11 14:43:00,
2013-01-11 09:48:00,56.9,53.1,30.32,ESE,105,6.0,8.0,87,0.00,,---,0.00,VWS V14.01,2013-01-11 14:48:00,
2013-01-11 09:53:00,57.0,53.5,30.31,ESE,107,6.0,8.0,88,0.00,,---,0.00,VWS V14.01,2013-01-11 14:53:00,
2013-01-11 09:58:00,57.1,53.6,30.31,ESE,109,7.0,9.0,88,0.00,,---,0.00,VWS V14.01,2013-01-11 14:58:00,
2013-01-11 10:03:00,57.0,53.5,30.31,ESE,112,9.0,10.0,88,0.00,,---,0.00,VWS V14.01,2013-01-11 15:03:00,
2013-01-11 10:08:00,57.1,53.6,30.29,ESE,112,9.0,11.0,88,0.00,,---,0.00,VWS V14.01,2013-01-11 15:08:00,
2013-01-11 10:13:00,57.2,53.7,30.29,ESE,113,9.0,11.0,88,0.00,,---,0.00,VWS V14.01,2013-01-11 15:13:00,
2013-01-11 10:18:00,57.5,54.0,30.29,ESE,113,7.0,10.0,88,0.00,,---,0.00,VWS V14.01,2013-01-11 15:18:00,
2013-01-11 10:23:00,57.8,54.3,30.29,ESE,113,8.0,11.0,88,0.00,,---,0.00,VWS V14.01,2013-01-11 15:23:00,
2013-01-11 10:28:00,57.9,54.4,30.29,ESE,113,8.0,10.0,88,0.00,,---,0.00,VWS V14.01,2013-01-11 15:28:00,
2013-01-11 10:33:00,57.7,54.2,30.29,ESE,113,7.0,10.0,88,0.00,,---,0.00,VWS V14.01,2013-01-11 15:33:00,
2013-01-11 10:37:00,57.6,54.1,30.29,ESE,113,9.0,10.0,88,0.00,,---,0.00,VWS V14.01,2013-01-11 15:37:00,
2013-01-11 10:42:00,57.5,54.3,30.28,ESE,114,10.0,11.0,89,0.00,,---,0.00,VWS V14.01,2013-01-11 15:42:00,
2013-01-11 10:47:00,57.5,54.0,30.28,ESE,114,10.0,11.0,88,0.00,,---,0.00,VWS V14.01,2013-01-11 15:47:00,
2013-01-11 10:52:00,57.5,54.0,30.28,ESE,114,9.0,11.0,88,0.00,,---,0.00,VWS V14.01,2013-01-11 15:52:00,
2013-01-11 10:57:00,57.3,53.8,30.27,ESE,115,9.0,10.0,88,0.00,,---,0.00,VWS V14.01,2013-01-11 15:57:00,
2013-01-11 11:02:00,57.4,54.2,30.27,ESE,115,10.0,10.0,89,0.00,,---,0.00,VWS V14.01,2013-01-11 16:02:00,
2013-01-11 11:07:00,57.5,54.3,30.27,ESE,115,6.0,9.0,89,0.00,,---,0.00,VWS V14.01,2013-01-11 16:07:00,
2013-01-11 11:12:00,57.6,54.4,30.26,ESE,115,7.0,7.0,89,0.00,,---,0.00,VWS V14.01,2013-01-11 16:12:00,
2013-01-11 11:17:00,57.6,54.1,30.26,ESE,115,5.0,6.0,88,0.00,,---,0.00,VWS V14.01,2013-01-11 16:17:00,
2013-01-11 11:22:00,57.4,53.9,30.26,ESE,116,6.0,6.0,88,0.00,,---,0.00,VWS V14.01,2013-01-11 16:22:00,
2013-01-11 11:27:00,57.4,54.2,30.26,SE,126,0.0,7.0,89,0.00,,---,0.00,VWS V14.01,2013-01-11 16:27:00,
2013-01-11 11:32:00,57.3,54.1,30.26,SE,128,0.0,1.0,89,0.00,,---,0.00,VWS V14.01,2013-01-11 16:32:00,
2013-01-11 11:37:00,57.3,54.1,30.26,SE,129,0.0,0.0,89,0.00,,---,0.00,VWS V14.01,2013-01-11 16:37:00,
2013-01-11 11:42:00,57.3,54.1,30.25,SE,130,7.0,8.0,89,0.00,,---,0.00,VWS V14.01,2013-01-11 16:42:00,
2013-01-11 11:47:00,57.3,54.1,30.25,SE,132,9.0,9.0,89,0.00,,---,0.00,VWS V14.01,2013-01-11 16:47:00,
2013-01-11 11:52:00,57.3,54.1,30.25,SE,134,7.0,9.0,89,0.00,,---,0.00,VWS V14.01,2013-01-11 16:52:00,
2013-01-11 11:57:00,57.3,54.1,30.24,SE,134,7.0,9.0,89,0.00,,---,0.00,VWS V14.01,2013-01-11 16:57:00,
2013-01-11 12:02:00,57.4,54.5,30.24,SE,134,9.0,10.0,90,0.00,,---,0.00,VWS V14.01,2013-01-11 17:02:00,
2013-01-11 12:07:00,57.6,54.7,30.24,SE,134,7.0,10.0,90,0.00,,---,0.00,VWS V14.01,2013-01-11 17:07:00,
2013-01-11 12:12:00,57.7,54.8,30.23,SE,134,7.0,10.0,90,0.00,,---,0.00,VWS V14.01,2013-01-11 17:12:00,
2013-01-11 12:17:00,57.8,54.9,30.23,SE,134,6.0,9.0,90,0.00,,---,0.00,VWS V14.01,2013-01-11 17:17:00,
2013-01-11 12:22:00,57.8,54.9,30.23,SE,134,7.0,7.0,90,0.00,,---,0.00,VWS V14.01,2013-01-11 17:22:00,
2013-01-11 12:27:00,57.8,54.9,30.23,SE,134,6.0,8.0,90,0.00,,---,0.00,VWS V14.01,2013-01-11 17:27:00,
2013-01-11 12:32:00,57.9,55.0,30.23,SE,134,6.0,7.0,90,0.00,,---,0.00,VWS V14.01,2013-01-11 17:32:00,
2013-01-11 12:37:00,58.1,55.2,30.23,SE,134,6.0,7.0,90,0.00,,---,0.00,VWS V14.01,2013-01-11 17:37:00,
2013-01-11 12:42:00,58.1,55.2,30.23,SE,134,0.0,6.0,90,0.00,,---,0.00,VWS V14.01,2013-01-11 17:42:00,
2013-01-11 12:47:00,58.3,55.4,30.23,SE,134,6.0,6.0,90,0.00,,---,0.00,VWS V14.01,2013-01-11 17:47:00,
2013-01-11 12:52:00,58.3,55.4,30.23,SE,134,5.0,7.0,90,0.00,,---,0.00,VWS V14.01,2013-01-11 17:52:00,
2013-01-11 12:57:00,58.4,55.5,30.22,SE,134,0.0,0.0,90,0.00,,---,0.00,VWS V14.01,2013-01-11 17:57:00,
2013-01-11 13:02:00,58.3,55.4,30.22,SE,134,0.0,0.0,90,0.00,,---,0.00,VWS V14.01,2013-01-11 18:02:00,
2013-01-11 13:07:00,58.2,55.3,30.22,SE,134,0.0,0.0,90,0.00,,---,0.00,VWS V14.01,2013-01-11 18:07:00,
2013-01-11 13:12:00,58.0,55.1,30.22,SE,134,0.0,0.0,90,0.00,,---,0.00,VWS V14.01,2013-01-11 18:12:00,
2013-01-11 13:17:00,58.1,55.5,30.22,SE,134,5.0,5.0,91,0.00,,---,0.00,VWS V14.01,2013-01-11 18:17:00,
2013-01-11 13:22:00,58.2,55.6,30.22,SE,134,6.0,6.0,91,0.00,,---,0.00,VWS V14.01,2013-01-11 18:22:00,
2013-01-11 13:27:00,58.6,56.0,30.21,SE,134,7.0,8.0,91,0.00,,---,0.00,VWS V14.01,2013-01-11 18:27:00,
2013-01-11 13:32:00,58.7,56.1,30.21,SE,134,6.0,8.0,91,0.00,,---,0.00,VWS V14.01,2013-01-11 18:32:00,
2013-01-11 13:33:00,58.6,56.0,30.21,SE,134,6.0,7.0,91,0.00,,---,0.00,VWS V14.01,2013-01-11 18:33:00,
2013-01-11 13:37:00,58.7,56.1,30.21,SE,134,6.0,7.0,91,0.00,,---,0.00,VWS V14.01,2013-01-11 18:37:00,
2013-01-11 13:42:00,58.6,56.0,30.21,SE,134,6.0,7.0,91,0.00,,---,0.00,VWS V14.01,2013-01-11 18:42:00,
2013-01-11 13:47:00,58.4,55.8,30.21,SE,134,6.0,6.0,91,0.00,,---,0.00,VWS V14.01,2013-01-11 18:47:00,
2013-01-11 13:52:00,58.3,55.7,30.21,SE,134,6.0,8.0,91,0.00,,---,0.00,VWS V14.01,2013-01-11 18:52:00,
2013-01-11 13:57:00,58.2,55.6,30.20,SE,134,7.0,10.0,91,0.00,,---,0.00,VWS V14.01,2013-01-11 18:57:00,
2013-01-11 14:02:00,58.3,56.0,30.20,SE,134,7.0,10.0,92,0.00,,---,0.00,VWS V14.01,2013-01-11 19:02:00,
2013-01-11 14:07:00,58.4,56.1,30.20,SE,134,8.0,10.0,92,0.00,,---,0.00,VWS V14.01,2013-01-11 19:07:00,
2013-01-11 14:10:00,58.6,56.3,30.19,SE,138,9.0,11.0,92,0.00,,---,0.00,VWS V14.01,2013-01-11 19:10:00,
2013-01-11 14:12:00,58.4,56.1,30.19,SE,136,9.0,10.0,92,0.00,,---,0.00,VWS V14.01,2013-01-11 19:12:00,
2013-01-11 14:17:00,58.5,56.2,30.19,SE,136,10.0,11.0,92,0.00,,---,0.00,VWS V14.01,2013-01-11 19:17:00,
2013-01-11 14:22:00,58.7,56.4,30.19,SE,140,10.0,11.0,92,0.00,,---,0.00,VWS V14.01,2013-01-11 19:22:00,
2013-01-11 14:27:00,58.9,56.6,30.19,SE,145,9.0,12.0,92,0.00,,---,0.00,VWS V14.01,2013-01-11 19:27:00,
2013-01-11 14:32:00,58.8,56.5,30.19,SE,142,7.0,10.0,92,0.00,,---,0.00,VWS V14.01,2013-01-11 19:32:00,
2013-01-11 14:37:00,58.6,56.3,30.19,SE,141,9.0,10.0,92,0.00,,---,0.00,VWS V14.01,2013-01-11 19:37:00,
2013-01-11 14:42:00,58.6,56.3,30.19,SE,141,10.0,10.0,92,0.00,,---,0.00,VWS V14.01,2013-01-11 19:42:00,
2013-01-11 14:47:00,58.4,56.1,30.19,SE,144,7.0,10.0,92,0.00,,---,0.00,VWS V14.01,2013-01-11 19:47:00,
2013-01-11 14:52:00,58.4,56.1,30.19,SSE,148,9.0,9.0,92,0.00,,---,0.00,VWS V14.01,2013-01-11 19:52:00,
2013-01-11 14:57:00,58.4,56.4,30.19,SE,146,10.0,11.0,93,0.00,,---,0.00,VWS V14.01,2013-01-11 19:57:00,
2013-01-11 15:02:00,58.3,56.0,30.19,SE,144,10.0,10.0,92,0.00,,---,0.00,VWS V14.01,2013-01-11 20:02:00,
2013-01-11 15:07:00,58.1,55.8,30.19,SE,142,10.0,10.0,92,0.00,,---,0.00,VWS V14.01,2013-01-11 20:07:00,
2013-01-11 15:12:00,58.2,56.2,30.18,SE,141,7.0,10.0,93,0.00,,---,0.00,VWS V14.01,2013-01-11 20:12:00,
2013-01-11 15:17:00,58.2,56.2,30.18,SE,142,7.0,9.0,93,0.00,,---,0.00,VWS V14.01,2013-01-11 20:17:00,
2013-01-11 15:22:00,58.1,56.1,30.18,SE,146,7.0,9.0,93,0.00,,---,0.00,VWS V14.01,2013-01-11 20:22:00,
2013-01-11 15:23:00,57.7,55.7,30.18,SSE,150,6.0,8.0,93,0.00,,---,0.00,VWS V14.01,2013-01-11 20:23:00,
2013-01-11 15:26:00,57.7,55.7,30.18,SSE,151,5.0,7.0,93,0.00,,---,0.00,VWS V14.01,2013-01-11 20:26:00,
2013-01-11 15:27:00,57.9,55.9,30.18,SSE,150,7.0,9.0,93,0.00,,---,0.00,VWS V14.01,2013-01-11 20:27:00,
2013-01-11 15:29:00,57.7,55.7,30.17,SSE,152,6.0,7.0,93,0.00,,---,0.00,VWS V14.01,2013-01-11 20:29:00,
2013-01-11 15:32:00,57.7,55.7,30.18,SSE,150,6.0,8.0,93,0.00,,---,0.00,VWS V14.01,2013-01-11 20:32:00,
2013-01-11 15:37:00,57.7,55.7,30.18,SSE,151,6.0,7.0,93,0.00,,---,0.00,VWS V14.01,2013-01-11 20:37:00,
2013-01-11 15:42:00,57.6,55.6,30.17,SSE,152,5.0,6.0,93,0.00,,---,0.00,VWS V14.01,2013-01-11 20:42:00,
2013-01-11 15:47:00,57.6,55.6,30.17,SSE,154,6.0,6.0,93,0.00,,---,0.00,VWS V14.01,2013-01-11 20:47:00,
2013-01-11 15:52:00,57.6,55.6,30.17,SSE,155,4.0,6.0,93,0.00,,---,0.00,VWS V14.01,2013-01-11 20:52:00,
2013-01-11 15:57:00,57.6,55.6,30.17,SSE,155,0.0,4.0,93,0.00,,---,0.00,VWS V14.01,2013-01-11 20:57:00,
2013-01-11 16:02:00,57.7,55.7,30.17,SSE,167,5.0,6.0,93,0.00,,---,0.00,VWS V14.01,2013-01-11 21:02:00,
2013-01-11 16:07:00,56.8,54.8,30.17,SW,230,4.0,7.0,93,0.04,,---,0.04,VWS V14.01,2013-01-11 21:07:00,
2013-01-11 16:12:00,57.3,55.6,30.18,SW,236,6.0,9.0,94,0.08,,---,0.08,VWS V14.01,2013-01-11 21:12:00,
2013-01-11 16:17:00,58.0,56.3,30.18,SW,234,0.0,4.0,94,0.11,,---,0.11,VWS V14.01,2013-01-11 21:17:00,
2013-01-11 16:19:00,59.1,57.4,30.17,West,268,12.0,14.0,94,0.11,,---,0.11,VWS V14.01,2013-01-11 21:19:00,
2013-01-11 16:20:00,58.8,56.8,30.17,West,263,7.0,14.0,93,0.11,,---,0.11,VWS V14.01,2013-01-11 21:20:00,
2013-01-11 16:22:00,58.9,57.5,30.18,SSW,203,10.0,10.0,95,0.11,,---,0.11,VWS V14.01,2013-01-11 21:22:00,
2013-01-11 16:25:00,60.0,58.6,30.17,SW,232,12.0,12.0,95,0.11,,---,0.11,VWS V14.01,2013-01-11 21:25:00,
2013-01-11 16:26:00,60.6,59.5,30.17,SW,232,11.0,12.0,96,0.11,,---,0.11,VWS V14.01,2013-01-11 21:26:00,
2013-01-11 16:27:00,59.5,58.1,30.17,SSW,200,9.0,10.0,95,0.11,,---,0.11,VWS V14.01,2013-01-11 21:27:00,
2013-01-11 16:32:00,59.3,57.9,30.17,WSW,240,6.0,14.0,95,0.11,,---,0.11,VWS V14.01,2013-01-11 21:32:00,
2013-01-11 16:34:00,60.0,58.3,30.18,WSW,247,7.0,10.0,94,0.11,,---,0.11,VWS V14.01,2013-01-11 21:34:00,
2013-01-11 16:36:00,59.4,57.7,30.18,WSW,248,3.0,7.0,94,0.11,,---,0.11,VWS V14.01,2013-01-11 21:36:00,
2013-01-11 16:37:00,60.9,59.8,30.17,SW,232,9.0,12.0,96,0.11,,---,0.11,VWS V14.01,2013-01-11 21:37:00,
2013-01-11 16:41:00,59.1,57.7,30.18,WSW,248,4.0,5.0,95,0.11,,---,0.11,VWS V14.01,2013-01-11 21:41:00,
2013-01-11 16:42:00,60.6,58.9,30.18,WSW,240,6.0,10.0,94,0.11,,---,0.11,VWS V14.01,2013-01-11 21:42:00,
2013-01-11 16:43:00,59.4,58.0,30.18,WSW,248,4.0,5.0,95,0.11,,---,0.11,VWS V14.01,2013-01-11 21:43:00,
2013-01-11 16:47:00,59.1,57.4,30.18,WSW,248,3.0,7.0,94,0.11,,---,0.11,VWS V14.01,2013-01-11 21:47:00,
2013-01-11 16:50:00,59.8,58.4,30.18,WSW,248,0.0,0.0,95,0.11,,---,0.11,VWS V14.01,2013-01-11 21:50:00,
2013-01-11 16:52:00,59.4,58.0,30.18,WSW,248,4.0,5.0,95,0.11,,---,0.11,VWS V14.01,2013-01-11 21:52:00,
2013-01-11 16:53:00,59.5,58.1,30.18,WSW,248,0.0,0.0,95,0.11,,---,0.11,VWS V14.01,2013-01-11 21:53:00,
2013-01-11 16:57:00,59.5,58.1,30.18,WSW,248,4.0,5.0,95,0.11,,---,0.11,VWS V14.01,2013-01-11 21:57:00,
2013-01-11 17:00:00,58.3,56.6,30.17,WSW,248,0.0,0.0,94,0.07,,---,0.11,VWS V14.01,2013-01-11 22:00:00,
2013-01-11 17:02:00,59.6,58.2,30.18,WSW,248,0.0,0.0,95,0.11,,---,0.11,VWS V14.01,2013-01-11 22:02:00,
2013-01-11 17:05:00,58.5,57.1,30.17,WSW,248,0.0,0.0,95,0.01,,---,0.11,VWS V14.01,2013-01-11 22:05:00,
2013-01-11 17:07:00,58.7,57.0,30.18,WSW,248,0.0,0.0,94,0.10,,---,0.11,VWS V14.01,2013-01-11 22:07:00,
2013-01-11 17:09:00,59.4,58.3,30.17,WSW,248,0.0,0.0,96,0.01,,---,0.11,VWS V14.01,2013-01-11 22:09:00,
2013-01-11 17:11:00,59.4,58.0,30.17,WSW,248,0.0,0.0,95,0.00,,---,0.11,VWS V14.01,2013-01-11 22:11:00,
2013-01-11 17:12:00,58.2,56.8,30.17,WSW,248,0.0,0.0,95,0.07,,---,0.11,VWS V14.01,2013-01-11 22:12:00,
2013-01-11 17:14:00,59.4,58.0,30.17,WSW,248,0.0,0.0,95,0.00,,---,0.11,VWS V14.01,2013-01-11 22:14:00,
2013-01-11 17:15:00,59.4,58.0,30.17,WSW,248,0.0,0.0,95,0.00,,---,0.11,VWS V14.01,2013-01-11 22:15:00,
2013-01-11 17:17:00,58.9,57.5,30.17,WSW,248,0.0,0.0,95,0.01,,---,0.11,VWS V14.01,2013-01-11 22:17:00,
2013-01-11 17:18:00,59.4,58.0,30.17,WSW,248,0.0,0.0,95,0.00,,---,0.11,VWS V14.01,2013-01-11 22:18:00,
2013-01-11 17:21:00,59.6,58.2,30.17,WSW,248,0.0,0.0,95,0.00,,---,0.11,VWS V14.01,2013-01-11 22:21:00,
2013-01-11 17:22:00,59.4,58.0,30.17,WSW,248,0.0,0.0,95,0.00,,---,0.11,VWS V14.01,2013-01-11 22:22:00,
2013-01-11 17:27:00,59.4,58.0,30.17,WSW,248,0.0,0.0,95,0.00,,---,0.11,VWS V14.01,2013-01-11 22:27:00,
2013-01-11 17:30:00,59.6,58.2,30.17,WSW,248,0.0,0.0,95,0.00,,---,0.11,VWS V14.01,2013-01-11 22:30:00,
2013-01-11 17:32:00,59.5,58.1,30.17,WSW,248,0.0,0.0,95,0.00,,---,0.11,VWS V14.01,2013-01-11 22:32:00,
2013-01-11 17:33:00,59.6,58.2,30.17,WSW,248,0.0,0.0,95,0.00,,---,0.11,VWS V14.01,2013-01-11 22:33:00,
2013-01-11 17:37:00,59.6,58.2,30.17,WSW,248,0.0,0.0,95,0.00,,---,0.11,VWS V14.01,2013-01-11 22:37:00,
2013-01-11 17:38:00,59.3,57.9,30.17,WSW,248,0.0,0.0,95,0.00,,---,0.11,VWS V14.01,2013-01-11 22:38:00,
2013-01-11 17:40:00,59.2,57.8,30.17,WSW,248,0.0,0.0,95,0.00,,---,0.11,VWS V14.01,2013-01-11 22:40:00,
2013-01-11 17:42:00,59.6,58.2,30.17,WSW,248,0.0,0.0,95,0.00,,---,0.11,VWS V14.01,2013-01-11 22:42:00,
2013-01-11 17:44:00,59.1,57.7,30.17,WSW,248,0.0,0.0,95,0.00,,---,0.11,VWS V14.01,2013-01-11 22:44:00,
2013-01-11 17:45:00,59.0,57.6,30.17,WSW,248,0.0,0.0,95,0.00,,---,0.11,VWS V14.01,2013-01-11 22:45:00,
2013-01-11 17:47:00,59.4,58.0,30.17,WSW,248,0.0,0.0,95,0.00,,---,0.11,VWS V14.01,2013-01-11 22:47:00,
2013-01-11 17:50:00,58.7,57.0,30.17,WSW,248,0.0,0.0,94,0.00,,---,0.11,VWS V14.01,2013-01-11 22:50:00,
2013-01-11 17:52:00,59.2,57.8,30.17,WSW,248,0.0,0.0,95,0.00,,---,0.11,VWS V14.01,2013-01-11 22:52:00,
2013-01-11 17:54:00,58.4,57.0,30.17,WSW,248,0.0,0.0,95,0.00,,---,0.11,VWS V14.01,2013-01-11 22:54:00,
2013-01-11 17:57:00,58.8,57.4,30.17,WSW,248,0.0,0.0,95,0.00,,---,0.11,VWS V14.01,2013-01-11 22:57:00,
2013-01-11 17:59:00,58.7,57.3,30.17,WSW,248,0.0,0.0,95,0.00,,---,0.11,VWS V14.01,2013-01-11 22:59:00,
2013-01-11 18:02:00,58.4,56.7,30.17,WSW,248,0.0,0.0,94,0.00,,---,0.11,VWS V14.01,2013-01-11 23:02:00,
2013-01-11 18:04:00,58.4,57.0,30.17,WSW,248,0.0,0.0,95,0.00,,---,0.11,VWS V14.01,2013-01-11 23:04:00,
2013-01-11 18:07:00,58.7,57.3,30.17,WSW,248,0.0,0.0,95,0.00,,---,0.11,VWS V14.01,2013-01-11 23:07:00,
2013-01-11 18:08:00,58.0,56.3,30.17,WSW,248,0.0,0.0,94,0.00,,---,0.11,VWS V14.01,2013-01-11 23:08:00,
2013-01-11 18:09:00,57.8,56.1,30.17,WSW,248,0.0,0.0,94,0.00,,---,0.11,VWS V14.01,2013-01-11 23:09:00,
2013-01-11 18:10:00,57.8,56.1,30.17,WSW,248,0.0,0.0,94,0.00,,---,0.11,VWS V14.01,2013-01-11 23:10:00,
2013-01-11 18:11:00,57.7,56.3,30.17,WSW,248,0.0,0.0,95,0.00,,---,0.11,VWS V14.01,2013-01-11 23:11:00,
2013-01-11 18:12:00,58.5,57.1,30.17,WSW,248,0.0,0.0,95,0.00,,---,0.11,VWS V14.01,2013-01-11 23:12:00,
2013-01-11 18:15:00,57.5,56.1,30.17,WSW,248,0.0,0.0,95,0.00,,---,0.11,VWS V14.01,2013-01-11 23:15:00,
2013-01-11 18:16:00,57.4,55.7,30.17,WSW,248,0.0,0.0,94,0.00,,---,0.11,VWS V14.01,2013-01-11 23:16:00,
2013-01-11 18:17:00,58.0,56.3,30.17,WSW,248,0.0,0.0,94,0.00,,---,0.11,VWS V14.01,2013-01-11 23:17:00,
2013-01-11 18:18:00,57.3,55.6,30.17,WSW,248,0.0,0.0,94,0.00,,---,0.11,VWS V14.01,2013-01-11 23:18:00,
2013-01-11 18:19:00,57.2,55.5,30.17,WSW,248,0.0,0.0,94,0.00,,---,0.11,VWS V14.01,2013-01-11 23:19:00,
2013-01-11 18:20:00,57.1,55.4,30.17,WSW,248,0.0,0.0,94,0.00,,---,0.11,VWS V14.01,2013-01-11 23:20:00,
2013-01-11 18:21:00,57.0,55.3,30.17,WSW,248,0.0,0.0,94,0.00,,---,0.11,VWS V14.01,2013-01-11 23:21:00,
2013-01-11 18:22:00,57.6,56.2,30.17,WSW,248,0.0,0.0,95,0.00,,---,0.11,VWS V14.01,2013-01-11 23:22:00,
2013-01-11 18:25:00,57.1,55.7,30.17,WSW,248,0.0,0.0,95,0.00,,---,0.11,VWS V14.01,2013-01-11 23:25:00,
2013-01-11 18:27:00,57.3,55.6,30.17,WSW,248,0.0,0.0,94,0.00,,---,0.11,VWS V14.01,2013-01-11 23:27:00,
2013-01-11 18:30:00,57.0,55.6,30.17,WSW,248,0.0,1.0,95,0.00,,---,0.11,VWS V14.01,2013-01-11 23:30:00,
2013-01-11 18:32:00,57.0,55.6,30.17,WSW,248,0.0,0.0,95,0.00,,---,0.11,VWS V14.01,2013-01-11 23:32:00,
2013-01-11 18:33:00,57.0,55.6,30.17,WSW,248,0.0,1.0,95,0.00,,---,0.11,VWS V14.01,2013-01-11 23:33:00,
2013-01-11 18:34:00,57.2,55.8,30.17,WSW,248,0.0,1.0,95,0.00,,---,0.11,VWS V14.01,2013-01-11 23:34:00,
2013-01-11 18:37:00,57.1,55.7,30.17,WSW,248,0.0,0.0,95,0.00,,---,0.11,VWS V14.01,2013-01-11 23:37:00,
2013-01-11 18:42:00,56.9,55.5,30.17,WSW,248,0.0,1.0,95,0.00,,---,0.11,VWS V14.01,2013-01-11 23:42:00,
2013-01-11 18:43:00,57.0,55.6,30.17,WSW,248,0.0,0.0,95,0.00,,---,0.11,VWS V14.01,2013-01-11 23:43:00,
2013-01-11 18:44:00,57.1,55.7,30.17,WSW,248,0.0,0.0,95,0.00,,---,0.11,VWS V14.01,2013-01-11 23:44:00,
2013-01-11 18:47:00,57.4,56.0,30.17,WSW,248,0.0,0.0,95,0.00,,---,0.11,VWS V14.01,2013-01-11 23:47:00,
2013-01-11 18:51:00,56.4,55.0,30.17,WSW,248,0.0,0.0,95,0.00,,---,0.11,VWS V14.01,2013-01-11 23:51:00,
2013-01-11 18:52:00,56.9,55.5,30.17,WSW,248,0.0,0.0,95,0.00,,---,0.11,VWS V14.01,2013-01-11 23:52:00,
2013-01-11 18:53:00,56.6,55.5,30.17,WSW,248,0.0,0.0,96,0.00,,---,0.11,VWS V14.01,2013-01-11 23:53:00,
2013-01-11 18:54:00,56.5,55.1,30.17,WSW,248,0.0,0.0,95,0.00,,---,0.11,VWS V14.01,2013-01-11 23:54:00,
2013-01-11 18:55:00,56.2,54.8,30.17,WSW,248,0.0,0.0,95,0.00,,---,0.11,VWS V14.01,2013-01-11 23:55:00,
2013-01-11 18:56:00,56.0,54.6,30.17,WSW,248,0.0,0.0,95,0.00,,---,0.11,VWS V14.01,2013-01-11 23:56:00,
2013-01-11 18:57:00,56.6,55.2,30.17,WSW,248,0.0,0.0,95,0.00,,---,0.11,VWS V14.01,2013-01-11 23:57:00,
2013-01-11 19:01:00,56.0,54.9,30.16,WSW,248,0.0,0.0,96,0.00,,---,0.11,VWS V14.01,2013-01-12 00:01:00,
2013-01-11 19:02:00,56.6,55.5,30.17,WSW,248,0.0,0.0,96,0.00,,---,0.11,VWS V14.01,2013-01-12 00:02:00,
2013-01-11 19:03:00,56.0,54.6,30.16,WSW,248,0.0,0.0,95,0.00,,---,0.11,VWS V14.01,2013-01-12 00:03:00,
2013-01-11 19:06:00,56.0,54.9,30.16,WSW,248,0.0,0.0,96,0.00,,---,0.11,VWS V14.01,2013-01-12 00:06:00,
2013-01-11 19:07:00,56.0,54.6,30.17,WSW,248,0.0,0.0,95,0.00,,---,0.11,VWS V14.01,2013-01-12 00:07:00,
2013-01-11 19:08:00,56.1,55.0,30.16,WSW,248,0.0,0.0,96,0.00,,---,0.11,VWS V14.01,2013-01-12 00:08:00,
2013-01-11 19:09:00,56.1,55.0,30.16,WSW,248,0.0,0.0,96,0.00,,---,0.11,VWS V14.01,2013-01-12 00:09:00,
2013-01-11 19:10:00,56.2,55.1,30.16,WSW,248,0.0,0.0,96,0.00,,---,0.11,VWS V14.01,2013-01-12 00:10:00,
2013-01-11 19:11:00,56.1,54.7,30.16,WSW,248,0.0,0.0,95,0.00,,---,0.11,VWS V14.01,2013-01-12 00:11:00,
2013-01-11 19:12:00,56.0,54.6,30.16,WSW,248,0.0,0.0,95,0.00,,---,0.11,VWS V14.01,2013-01-12 00:12:00,
2013-01-11 19:14:00,55.9,54.5,30.16,WSW,248,0.0,0.0,95,0.00,,---,0.11,VWS V14.01,2013-01-12 00:14:00,
2013-01-11 19:15:00,56.1,55.0,30.16,WSW,248,0.0,0.0,96,0.00,,---,0.11,VWS V14.01,2013-01-12 00:15:00,
2013-01-11 19:16:00,56.3,55.2,30.16,WSW,248,0.0,2.0,96,0.00,,---,0.11,VWS V14.01,2013-01-12 00:16:00,
2013-01-11 19:17:00,56.1,55.0,30.16,WSW,248,0.0,0.0,96,0.00,,---,0.11,VWS V14.01,2013-01-12 00:17:00,
2013-01-11 19:18:00,56.6,55.5,30.16,WSW,248,0.0,2.0,96,0.00,,---,0.11,VWS V14.01,2013-01-12 00:18:00,
2013-01-11 19:19:00,56.6,55.5,30.16,WSW,248,0.0,2.0,96,0.00,,---,0.11,VWS V14.01,2013-01-12 00:19:00,
2013-01-11 19:20:00,56.6,55.5,30.16,WSW,248,0.0,0.0,96,0.00,,---,0.11,VWS V14.01,2013-01-12 00:20:00,
2013-01-11 19:22:00,55.9,54.5,30.16,WSW,248,0.0,0.0,95,0.00,,---,0.11,VWS V14.01,2013-01-12 00:22:00,
2013-01-11 19:24:00,56.3,54.9,30.16,WSW,248,0.0,0.0,95,0.00,,---,0.11,VWS V14.01,2013-01-12 00:24:00,
2013-01-11 19:25:00,56.3,54.9,30.16,WSW,248,0.0,0.0,95,0.00,,---,0.11,VWS V14.01,2013-01-12 00:25:00,
2013-01-11 19:26:00,56.2,54.8,30.16,WSW,248,0.0,0.0,95,0.00,,---,0.11,VWS V14.01,2013-01-12 00:26:00,
2013-01-11 19:27:00,56.5,55.4,30.16,WSW,248,0.0,2.0,96,0.00,,---,0.11,VWS V14.01,2013-01-12 00:27:00,
2013-01-11 19:28:00,56.1,55.0,30.16,WSW,248,0.0,0.0,96,0.00,,---,0.11,VWS V14.01,2013-01-12 00:28:00,
2013-01-11 19:29:00,56.2,55.1,30.16,WSW,248,0.0,0.0,96,0.00,,---,0.11,VWS V14.01,2013-01-12 00:29:00,
2013-01-11 19:30:00,56.3,55.2,30.16,WSW,248,0.0,0.0,96,0.00,,---,0.11,VWS V14.01,2013-01-12 00:30:00,
2013-01-11 19:32:00,56.4,55.3,30.16,WSW,248,0.0,0.0,96,0.00,,---,0.11,VWS V14.01,2013-01-12 00:32:00,
2013-01-11 19:33:00,56.4,55.3,30.16,WSW,248,0.0,0.0,96,0.00,,---,0.11,VWS V14.01,2013-01-12 00:33:00,
2013-01-11 19:34:00,56.4,55.3,30.16,WSW,248,0.0,0.0,96,0.00,,---,0.11,VWS V14.01,2013-01-12 00:34:00,
2013-01-11 19:35:00,56.4,55.3,30.16,WSW,248,0.0,0.0,96,0.00,,---,0.11,VWS V14.01,2013-01-12 00:35:00,
2013-01-11 19:36:00,56.3,55.2,30.16,WSW,248,0.0,0.0,96,0.00,,---,0.11,VWS V14.01,2013-01-12 00:36:00,
2013-01-11 19:37:00,56.1,55.0,30.16,WSW,248,0.0,0.0,96,0.00,,---,0.11,VWS V14.01,2013-01-12 00:37:00,
2013-01-11 19:39:00,55.9,54.5,30.16,WSW,248,0.0,0.0,95,0.00,,---,0.11,VWS V14.01,2013-01-12 00:39:00,
2013-01-11 19:40:00,55.9,54.8,30.16,WSW,248,0.0,0.0,96,0.00,,---,0.11,VWS V14.01,2013-01-12 00:40:00,
2013-01-11 19:41:00,55.9,54.8,30.16,WSW,248,0.0,0.0,96,0.00,,---,0.11,VWS V14.01,2013-01-12 00:41:00,
2013-01-11 19:42:00,56.4,55.3,30.16,WSW,248,0.0,0.0,96,0.00,,---,0.11,VWS V14.01,2013-01-12 00:42:00,
2013-01-11 19:43:00,56.0,54.9,30.16,WSW,248,0.0,0.0,96,0.00,,---,0.11,VWS V14.01,2013-01-12 00:43:00,
2013-01-11 19:44:00,55.9,54.8,30.16,WSW,248,0.0,0.0,96,0.00,,---,0.11,VWS V14.01,2013-01-12 00:44:00,
2013-01-11 19:45:00,56.0,54.9,30.16,WSW,248,0.0,0.0,96,0.00,,---,0.11,VWS V14.01,2013-01-12 00:45:00,
2013-01-11 19:46:00,56.0,54.9,30.16,WSW,248,0.0,0.0,96,0.00,,---,0.11,VWS V14.01,2013-01-12 00:46:00,
2013-01-11 19:47:00,56.2,54.8,30.16,WSW,248,0.0,0.0,95,0.00,,---,0.11,VWS V14.01,2013-01-12 00:47:00,
2013-01-11 19:48:00,56.2,55.1,30.16,WSW,248,0.0,0.0,96,0.00,,---,0.11,VWS V14.01,2013-01-12 00:48:00,
2013-01-11 19:49:00,56.3,55.2,30.16,WSW,248,0.0,0.0,96,0.00,,---,0.11,VWS V14.01,2013-01-12 00:49:00,
2013-01-11 19:50:00,56.4,55.3,30.16,WSW,248,0.0,0.0,96,0.00,,---,0.11,VWS V14.01,2013-01-12 00:50:00,
2013-01-11 19:51:00,56.4,55.3,30.16,WSW,248,0.0,0.0,96,0.00,,---,0.11,VWS V14.01,2013-01-12 00:51:00,
2013-01-11 19:52:00,56.0,54.9,30.16,WSW,248,0.0,0.0,96,0.00,,---,0.11,VWS V14.01,2013-01-12 00:52:00,
2013-01-11 19:54:00,56.0,54.9,30.16,WSW,248,0.0,0.0,96,0.00,,---,0.11,VWS V14.01,2013-01-12 00:54:00,
2013-01-11 19:56:00,55.8,54.4,30.16,WSW,248,0.0,0.0,95,0.00,,---,0.11,VWS V14.01,2013-01-12 00:56:00,
2013-01-11 19:57:00,56.2,55.1,30.16,WSW,248,0.0,0.0,96,0.00,,---,0.11,VWS V14.01,2013-01-12 00:57:00,
2013-01-11 19:58:00,55.7,54.6,30.16,WSW,248,0.0,0.0,96,0.00,,---,0.11,VWS V14.01,2013-01-12 00:58:00,
2013-01-11 19:59:00,55.7,54.6,30.16,WSW,248,0.0,0.0,96,0.00,,---,0.11,VWS V14.01,2013-01-12 00:59:00,
2013-01-11 20:00:00,55.7,54.6,30.16,WSW,248,0.0,0.0,96,0.00,,---,0.11,VWS V14.01,2013-01-12 01:00:00,
2013-01-11 20:01:00,55.6,54.5,30.16,WSW,248,0.0,0.0,96,0.00,,---,0.11,VWS V14.01,2013-01-12 01:01:00,
2013-01-11 20:02:00,56.2,55.1,30.16,WSW,248,0.0,0.0,96,0.00,,---,0.11,VWS V14.01,2013-01-12 01:02:00,
2013-01-11 20:03:00,55.4,54.3,30.16,WSW,248,0.0,0.0,96,0.00,,---,0.11,VWS V14.01,2013-01-12 01:03:00,
2013-01-11 20:04:00,55.4,54.3,30.16,WSW,248,0.0,0.0,96,0.00,,---,0.11,VWS V14.01,2013-01-12 01:04:00,
2013-01-11 20:05:00,55.4,54.3,30.16,WSW,248,0.0,0.0,96,0.00,,---,0.11,VWS V14.01,2013-01-12 01:05:00,
2013-01-11 20:06:00,55.4,54.3,30.16,WSW,248,0.0,0.0,96,0.00,,---,0.11,VWS V14.01,2013-01-12 01:06:00,
2013-01-11 20:07:00,55.7,54.6,30.16,WSW,248,0.0,0.0,96,0.00,,---,0.11,VWS V14.01,2013-01-12 01:07:00,
2013-01-11 20:08:00,55.4,54.3,30.16,WSW,248,0.0,0.0,96,0.00,,---,0.11,VWS V14.01,2013-01-12 01:08:00,
2013-01-11 20:09:00,55.3,54.2,30.16,WSW,248,0.0,0.0,96,0.00,,---,0.11,VWS V14.01,2013-01-12 01:09:00,
2013-01-11 20:10:00,55.3,54.2,30.16,WSW,248,0.0,0.0,96,0.00,,---,0.11,VWS V14.01,2013-01-12 01:10:00,
2013-01-11 20:11:00,55.3,54.2,30.16,WSW,248,0.0,0.0,96,0.00,,---,0.11,VWS V14.01,2013-01-12 01:11:00,
2013-01-11 20:12:00,55.5,54.1,30.16,WSW,248,0.0,0.0,95,0.00,,---,0.11,VWS V14.01,2013-01-12 01:12:00,
2013-01-11 20:13:00,55.2,54.1,30.16,WSW,248,0.0,0.0,96,0.00,,---,0.11,VWS V14.01,2013-01-12 01:13:00,
2013-01-11 20:14:00,55.2,54.1,30.17,WSW,248,0.0,0.0,96,0.00,,---,0.11,VWS V14.01,2013-01-12 01:14:00,
2013-01-11 20:15:00,55.2,54.1,30.17,WSW,248,0.0,0.0,96,0.00,,---,0.11,VWS V14.01,2013-01-12 01:15:00,
2013-01-11 20:16:00,55.2,54.1,30.17,WSW,248,0.0,0.0,96,0.00,,---,0.11,VWS V14.01,2013-01-12 01:16:00,
2013-01-11 20:17:00,55.3,54.2,30.16,WSW,248,0.0,0.0,96,0.00,,---,0.11,VWS V14.01,2013-01-12 01:17:00,
2013-01-11 20:19:00,55.2,54.1,30.17,WSW,248,0.0,0.0,96,0.00,,---,0.11,VWS V14.01,2013-01-12 01:19:00,
2013-01-11 20:20:00,55.1,54.0,30.17,WSW,248,0.0,0.0,96,0.00,,---,0.11,VWS V14.01,2013-01-12 01:20:00,
2013-01-11 20:21:00,55.2,54.1,30.17,WSW,248,0.0,0.0,96,0.00,,---,0.11,VWS V14.01,2013-01-12 01:21:00,
2013-01-11 20:22:00,55.2,54.1,30.16,WSW,248,0.0,0.0,96,0.00,,---,0.11,VWS V14.01,2013-01-12 01:22:00,
2013-01-11 20:23:00,55.3,54.2,30.17,WSW,248,0.0,0.0,96,0.00,,---,0.11,VWS V14.01,2013-01-12 01:23:00,
2013-01-11 20:24:00,55.5,54.4,30.17,WSW,248,0.0,0.0,96,0.00,,---,0.11,VWS V14.01,2013-01-12 01:24:00,
2013-01-11 20:25:00,55.7,54.6,30.17,WSW,248,0.0,0.0,96,0.00,,---,0.11,VWS V14.01,2013-01-12 01:25:00,
2013-01-11 20:26:00,55.8,54.7,30.17,WSW,248,0.0,0.0,96,0.00,,---,0.11,VWS V14.01,2013-01-12 01:26:00,
2013-01-11 20:27:00,55.1,54.0,30.17,WSW,248,0.0,0.0,96,0.00,,---,0.11,VWS V14.01,2013-01-12 01:27:00,
2013-01-11 20:28:00,56.1,55.0,30.17,WSW,248,0.0,0.0,96,0.00,,---,0.11,VWS V14.01,2013-01-12 01:28:00,
2013-01-11 20:29:00,56.2,55.1,30.16,WSW,248,0.0,0.0,96,0.00,,---,0.11,VWS V14.01,2013-01-12 01:29:00,
2013-01-11 20:30:00,56.3,55.2,30.16,WSW,248,0.0,0.0,96,0.00,,---,0.11,VWS V14.01,2013-01-12 01:30:00,
2013-01-11 20:31:00,56.4,55.3,30.16,WSW,248,0.0,0.0,96,0.00,,---,0.11,VWS V14.01,2013-01-12 01:31:00,
2013-01-11 20:32:00,55.3,54.2,30.17,WSW,248,0.0,0.0,96,0.00,,---,0.11,VWS V14.01,2013-01-12 01:32:00,
2013-01-11 20:34:00,56.6,55.5,30.16,WSW,248,0.0,0.0,96,0.00,,---,0.11,VWS V14.01,2013-01-12 01:34:00,
2013-01-11 20:36:00,56.6,55.5,30.16,WSW,248,0.0,0.0,96,0.00,,---,0.11,VWS V14.01,2013-01-12 01:36:00,
2013-01-11 20:37:00,56.1,55.0,30.17,WSW,248,0.0,0.0,96,0.00,,---,0.11,VWS V14.01,2013-01-12 01:37:00,
2013-01-11 20:38:00,56.8,55.7,30.16,WSW,248,0.0,0.0,96,0.00,,---,0.11,VWS V14.01,2013-01-12 01:38:00,
2013-01-11 20:39:00,56.8,55.7,30.16,WSW,248,0.0,0.0,96,0.00,,---,0.11,VWS V14.01,2013-01-12 01:39:00,
2013-01-11 20:40:00,56.9,56.1,30.16,WSW,248,0.0,0.0,97,0.00,,---,0.11,VWS V14.01,2013-01-12 01:40:00,
2013-01-11 20:41:00,57.0,56.2,30.16,WSW,248,0.0,0.0,97,0.00,,---,0.11,VWS V14.01,2013-01-12 01:41:00,
2013-01-11 20:42:00,56.5,55.4,30.16,WSW,248,0.0,0.0,96,0.00,,---,0.11,VWS V14.01,2013-01-12 01:42:00,
2013-01-11 20:43:00,57.1,56.0,30.16,WSW,248,0.0,0.0,96,0.00,,---,0.11,VWS V14.01,2013-01-12 01:43:00,
2013-01-11 20:44:00,57.1,56.0,30.15,WSW,248,0.0,0.0,96,0.00,,---,0.11,VWS V14.01,2013-01-12 01:44:00,
2013-01-11 20:45:00,57.2,56.1,30.15,WSW,248,0.0,0.0,96,0.00,,---,0.11,VWS V14.01,2013-01-12 01:45:00,
2013-01-11 20:46:00,57.2,56.1,30.15,WSW,248,0.0,0.0,96,0.00,,---,0.11,VWS V14.01,2013-01-12 01:46:00,
2013-01-11 20:47:00,56.8,55.7,30.16,WSW,248,0.0,0.0,96,0.00,,---,0.11,VWS V14.01,2013-01-12 01:47:00,
2013-01-11 20:48:00,57.4,56.3,30.15,WSW,248,0.0,0.0,96,0.00,,---,0.11,VWS V14.01,2013-01-12 01:48:00,
2013-01-11 20:49:00,57.6,56.8,30.15,WSW,248,0.0,0.0,97,0.00,,---,0.11,VWS V14.01,2013-01-12 01:49:00,
2013-01-11 20:50:00,57.7,56.9,30.15,WSW,248,0.0,0.0,97,0.00,,---,0.11,VWS V14.01,2013-01-12 01:50:00,
2013-01-11 20:51:00,57.8,57.0,30.15,WSW,248,0.0,0.0,97,0.00,,---,0.11,VWS V14.01,2013-01-12 01:51:00,
2013-01-11 20:52:00,57.1,56.0,30.16,WSW,248,0.0,0.0,96,0.00,,---,0.11,VWS V14.01,2013-01-12 01:52:00,
2013-01-11 20:53:00,58.0,56.9,30.15,WSW,248,0.0,3.0,96,0.00,,---,0.11,VWS V14.01,2013-01-12 01:53:00,
2013-01-11 20:54:00,58.1,57.0,30.15,WSW,248,0.0,3.0,96,0.00,,---,0.11,VWS V14.01,2013-01-12 01:54:00,
2013-01-11 20:55:00,58.1,57.3,30.15,WSW,248,0.0,0.0,97,0.00,,---,0.11,VWS V14.01,2013-01-12 01:55:00,
2013-01-11 20:56:00,58.0,56.9,30.15,WSW,248,0.0,0.0,96,0.00,,---,0.11,VWS V14.01,2013-01-12 01:56:00,
2013-01-11 20:57:00,57.4,56.3,30.15,WSW,248,0.0,0.0,96,0.00,,---,0.11,VWS V14.01,2013-01-12 01:57:00,
2013-01-11 20:58:00,58.0,56.9,30.15,WSW,248,0.0,0.0,96,0.00,,---,0.11,VWS V14.01,2013-01-12 01:58:00,
2013-01-11 20:59:00,57.9,56.8,30.15,WSW,248,0.0,0.0,96,0.00,,---,0.11,VWS V14.01,2013-01-12 01:59:00,
2013-01-11 21:00:00,57.8,56.7,30.15,WSW,248,0.0,0.0,96,0.00,,---,0.11,VWS V14.01,2013-01-12 02:00:00,
2013-01-11 21:01:00,57.8,56.7,30.15,WSW,248,0.0,0.0,96,0.00,,---,0.11,VWS V14.01,2013-01-12 02:01:00,
2013-01-11 21:02:00,58.0,56.9,30.15,WSW,248,0.0,3.0,96,0.00,,---,0.11,VWS V14.01,2013-01-12 02:02:00,
2013-01-11 21:03:00,57.7,56.6,30.15,WSW,248,0.0,0.0,96,0.00,,---,0.11,VWS V14.01,2013-01-12 02:03:00,
2013-01-11 21:04:00,57.7,56.6,30.15,WSW,248,0.0,0.0,96,0.00,,---,0.11,VWS V14.01,2013-01-12 02:04:00,
2013-01-11 21:05:00,57.6,56.5,30.15,WSW,248,0.0,0.0,96,0.00,,---,0.11,VWS V14.01,2013-01-12 02:05:00,
2013-01-11 21:06:00,57.5,56.4,30.15,WSW,248,0.0,0.0,96,0.00,,---,0.11,VWS V14.01,2013-01-12 02:06:00,
2013-01-11 21:07:00,58.0,56.9,30.15,WSW,248,0.0,0.0,96,0.00,,---,0.11,VWS V14.01,2013-01-12 02:07:00,
2013-01-11 21:08:00,57.4,56.3,30.15,WSW,248,0.0,0.0,96,0.00,,---,0.11,VWS V14.01,2013-01-12 02:08:00,
2013-01-11 21:09:00,57.4,56.3,30.15,WSW,248,0.0,0.0,96,0.00,,---,0.11,VWS V14.01,2013-01-12 02:09:00,
2013-01-11 21:10:00,57.3,56.2,30.15,WSW,248,0.0,0.0,96,0.00,,---,0.11,VWS V14.01,2013-01-12 02:10:00,
2013-01-11 21:11:00,57.1,56.0,30.15,WSW,248,0.0,0.0,96,0.00,,---,0.11,VWS V14.01,2013-01-12 02:11:00,
2013-01-11 21:12:00,57.7,56.6,30.15,WSW,248,0.0,0.0,96,0.00,,---,0.11,VWS V14.01,2013-01-12 02:12:00,
2013-01-11 21:13:00,56.7,55.6,30.15,WSW,248,0.0,0.0,96,0.00,,---,0.11,VWS V14.01,2013-01-12 02:13:00,
2013-01-11 21:14:00,56.6,55.5,30.15,WSW,248,0.0,0.0,96,0.00,,---,0.11,VWS V14.01,2013-01-12 02:14:00,
2013-01-11 21:15:00,56.4,55.3,30.15,WSW,248,0.0,0.0,96,0.00,,---,0.11,VWS V14.01,2013-01-12 02:15:00,
2013-01-11 21:16:00,56.4,55.3,30.15,WSW,248,0.0,0.0,96,0.00,,---,0.11,VWS V14.01,2013-01-12 02:16:00,
2013-01-11 21:17:00,57.4,56.3,30.15,WSW,248,0.0,0.0,96,0.00,,---,0.11,VWS V14.01,2013-01-12 02:17:00,
2013-01-11 21:18:00,56.3,55.2,30.15,WSW,248,0.0,0.0,96,0.00,,---,0.11,VWS V14.01,2013-01-12 02:18:00,
2013-01-11 21:19:00,56.3,55.2,30.15,WSW,248,0.0,0.0,96,0.00,,---,0.11,VWS V14.01,2013-01-12 02:19:00,
2013-01-11 21:20:00,56.4,55.3,30.15,WSW,248,0.0,0.0,96,0.00,,---,0.11,VWS V14.01,2013-01-12 02:20:00,
2013-01-11 21:21:00,56.4,55.3,30.15,WSW,248,0.0,0.0,96,0.00,,---,0.11,VWS V14.01,2013-01-12 02:21:00,
2013-01-11 21:22:00,56.8,55.7,30.15,WSW,248,0.0,0.0,96,0.00,,---,0.11,VWS V14.01,2013-01-12 02:22:00,
2013-01-11 21:23:00,56.5,55.4,30.15,WSW,248,4.0,5.0,96,0.00,,---,0.11,VWS V14.01,2013-01-12 02:23:00,
2013-01-11 21:24:00,56.4,55.3,30.15,WSW,248,4.0,5.0,96,0.00,,---,0.11,VWS V14.01,2013-01-12 02:24:00,
2013-01-11 21:25:00,56.3,55.2,30.15,WSW,248,4.0,5.0,96,0.00,,---,0.11,VWS V14.01,2013-01-12 02:25:00,
2013-01-11 21:26:00,56.2,55.1,30.15,WSW,248,4.0,5.0,96,0.00,,---,0.11,VWS V14.01,2013-01-12 02:26:00,
2013-01-11 21:27:00,56.3,55.2,30.15,WSW,248,0.0,0.0,96,0.00,,---,0.11,VWS V14.01,2013-01-12 02:27:00,
2013-01-11 21:28:00,56.0,54.9,30.15,WSW,248,3.0,5.0,96,0.00,,---,0.11,VWS V14.01,2013-01-12 02:28:00,
2013-01-11 21:29:00,55.9,54.8,30.14,WSW,248,4.0,5.0,96,0.00,,---,0.11,VWS V14.01,2013-01-12 02:29:00,
2013-01-11 21:30:00,55.9,54.8,30.14,WSW,248,0.0,4.0,96,0.00,,---,0.11,VWS V14.01,2013-01-12 02:30:00,
2013-01-11 21:31:00,55.8,54.7,30.14,WSW,248,0.0,4.0,96,0.00,,---,0.11,VWS V14.01,2013-01-12 02:31:00,
2013-01-11 21:32:00,56.5,55.4,30.15,WSW,248,4.0,5.0,96,0.00,,---,0.11,VWS V14.01,2013-01-12 02:32:00,
2013-01-11 21:33:00,55.7,54.6,30.14,WSW,248,0.0,4.0,96,0.00,,---,0.11,VWS V14.01,2013-01-12 02:33:00,
2013-01-11 21:34:00,55.6,54.5,30.14,WSW,248,0.0,4.0,96,0.00,,---,0.11,VWS V14.01,2013-01-12 02:34:00,
2013-01-11 21:35:00,55.5,54.4,30.14,WSW,248,0.0,0.0,96,0.00,,---,0.11,VWS V14.01,2013-01-12 02:35:00,
2013-01-11 21:36:00,55.4,54.3,30.14,WSW,248,0.0,0.0,96,0.00,,---,0.11,VWS V14.01,2013-01-12 02:36:00,
2013-01-11 21:37:00,56.0,54.9,30.15,WSW,248,0.0,5.0,96,0.00,,---,0.11,VWS V14.01,2013-01-12 02:37:00,
2013-01-11 21:38:00,55.3,54.2,30.14,WSW,248,0.0,0.0,96,0.00,,---,0.11,VWS V14.01,2013-01-12 02:38:00,
2013-01-11 21:39:00,55.3,54.2,30.14,WSW,248,0.0,0.0,96,0.00,,---,0.11,VWS V14.01,2013-01-12 02:39:00,
2013-01-11 21:40:00,55.3,54.2,30.14,WSW,248,0.0,0.0,96,0.00,,---,0.11,VWS V14.01,2013-01-12 02:40:00,
2013-01-11 21:41:00,55.4,54.3,30.14,WSW,248,0.0,0.0,96,0.00,,---,0.11,VWS V14.01,2013-01-12 02:41:00,
2013-01-11 21:42:00,55.7,54.6,30.14,WSW,248,0.0,4.0,96,0.00,,---,0.11,VWS V14.01,2013-01-12 02:42:00,
2013-01-11 21:43:00,55.7,54.9,30.14,WSW,248,0.0,0.0,97,0.00,,---,0.11,VWS V14.01,2013-01-12 02:43:00,
2013-01-11 21:44:00,55.7,54.9,30.15,WSW,248,0.0,0.0,97,0.00,,---,0.11,VWS V14.01,2013-01-12 02:44:00,
2013-01-11 21:45:00,55.7,54.9,30.15,WSW,248,0.0,0.0,97,0.00,,---,0.11,VWS V14.01,2013-01-12 02:45:00,
2013-01-11 21:46:00,55.7,54.6,30.15,WSW,248,0.0,0.0,96,0.00,,---,0.11,VWS V14.01,2013-01-12 02:46:00,
2013-01-11 21:47:00,55.3,54.2,30.14,WSW,248,0.0,0.0,96,0.00,,---,0.11,VWS V14.01,2013-01-12 02:47:00,
2013-01-11 21:48:00,55.6,54.5,30.15,WSW,248,0.0,0.0,96,0.00,,---,0.11,VWS V14.01,2013-01-12 02:48:00,
2013-01-11 21:49:00,55.6,54.5,30.15,WSW,248,0.0,0.0,96,0.00,,---,0.11,VWS V14.01,2013-01-12 02:49:00,
2013-01-11 21:50:00,55.6,54.5,30.15,WSW,248,0.0,0.0,96,0.00,,---,0.11,VWS V14.01,2013-01-12 02:50:00,
2013-01-11 21:51:00,55.6,54.5,30.15,WSW,248,0.0,2.0,96,0.00,,---,0.11,VWS V14.01,2013-01-12 02:51:00,
2013-01-11 21:52:00,55.6,54.8,30.14,WSW,248,0.0,0.0,97,0.00,,---,0.11,VWS V14.01,2013-01-12 02:52:00,
2013-01-11 21:53:00,55.7,54.6,30.15,WSW,248,0.0,2.0,96,0.00,,---,0.11,VWS V14.01,2013-01-12 02:53:00,
2013-01-11 21:54:00,55.7,54.6,30.15,WSW,248,0.0,2.0,96,0.00,,---,0.11,VWS V14.01,2013-01-12 02:54:00,
2013-01-11 21:55:00,55.7,54.6,30.15,WSW,248,0.0,0.0,96,0.00,,---,0.11,VWS V14.01,2013-01-12 02:55:00,
2013-01-11 21:56:00,55.9,54.8,30.15,WSW,248,2.0,7.0,96,0.00,,---,0.11,VWS V14.01,2013-01-12 02:56:00,
2013-01-11 21:57:00,55.6,54.5,30.15,WSW,248,0.0,0.0,96,0.00,,---,0.11,VWS V14.01,2013-01-12 02:57:00,
2013-01-11 21:58:00,56.1,55.3,30.15,WSW,248,4.0,7.0,97,0.00,,---,0.11,VWS V14.01,2013-01-12 02:58:00,
2013-01-11 21:59:00,56.3,55.5,30.15,WSW,248,3.0,7.0,97,0.00,,---,0.11,VWS V14.01,2013-01-12 02:59:00,
2013-01-11 22:00:00,56.5,55.7,30.15,WSW,248,4.0,4.0,97,0.00,,---,0.11,VWS V14.01,2013-01-12 03:00:00,
2013-01-11 22:01:00,56.7,55.9,30.15,WSW,248,3.0,4.0,97,0.00,,---,0.11,VWS V14.01,2013-01-12 03:01:00,
2013-01-11 22:02:00,55.7,54.6,30.15,WSW,248,0.0,2.0,96,0.00,,---,0.11,VWS V14.01,2013-01-12 03:02:00,
2013-01-11 22:03:00,56.9,56.1,30.15,WSW,248,0.0,4.0,97,0.00,,---,0.11,VWS V14.01,2013-01-12 03:03:00,
2013-01-11 22:04:00,57.1,56.3,30.15,WSW,248,5.0,5.0,97,0.00,,---,0.11,VWS V14.01,2013-01-12 03:04:00,
2013-01-11 22:05:00,57.3,56.5,30.15,WSW,248,3.0,6.0,97,0.00,,---,0.11,VWS V14.01,2013-01-12 03:05:00,
2013-01-11 22:06:00,57.3,56.5,30.15,WSW,248,0.0,6.0,97,0.00,,---,0.11,VWS V14.01,2013-01-12 03:06:00,
2013-01-11 22:07:00,56.0,55.2,30.15,WSW,248,5.0,7.0,97,0.00,,---,0.11,VWS V14.01,2013-01-12 03:07:00,
2013-01-11 22:08:00,57.5,56.7,30.15,WSW,248,5.0,6.0,97,0.00,,---,0.11,VWS V14.01,2013-01-12 03:08:00,
2013-01-11 22:09:00,57.6,56.8,30.15,WSW,248,4.0,6.0,97,0.00,,---,0.11,VWS V14.01,2013-01-12 03:09:00,
2013-01-11 22:10:00,57.6,56.8,30.15,WSW,248,4.0,5.0,97,0.00,,---,0.11,VWS V14.01,2013-01-12 03:10:00,
2013-01-11 22:11:00,57.6,56.8,30.15,WSW,248,4.0,5.0,97,0.00,,---,0.11,VWS V14.01,2013-01-12 03:11:00,
2013-01-11 22:12:00,56.9,56.1,30.15,WSW,248,0.0,4.0,97,0.00,,---,0.11,VWS V14.01,2013-01-12 03:12:00,
2013-01-11 22:13:00,57.4,56.6,30.15,WSW,248,4.0,5.0,97,0.00,,---,0.11,VWS V14.01,2013-01-12 03:13:00,
2013-01-11 22:14:00,57.4,56.6,30.15,WSW,248,5.0,5.0,97,0.00,,---,0.11,VWS V14.01,2013-01-12 03:14:00,
2013-01-11 22:15:00,57.5,56.7,30.15,WSW,248,4.0,5.0,97,0.00,,---,0.11,VWS V14.01,2013-01-12 03:15:00,
2013-01-11 22:16:00,57.5,56.7,30.15,WSW,248,4.0,5.0,97,0.00,,---,0.11,VWS V14.01,2013-01-12 03:16:00,
2013-01-11 22:17:00,57.5,56.7,30.15,WSW,248,4.0,6.0,97,0.00,,---,0.11,VWS V14.01,2013-01-12 03:17:00,
2013-01-11 22:18:00,57.3,56.2,30.15,WSW,248,6.0,6.0,96,0.00,,---,0.11,VWS V14.01,2013-01-12 03:18:00,
2013-01-11 22:19:00,57.4,56.6,30.15,WSW,248,4.0,6.0,97,0.00,,---,0.11,VWS V14.01,2013-01-12 03:19:00,
2013-01-11 22:20:00,57.4,56.6,30.15,WSW,248,5.0,5.0,97,0.00,,---,0.11,VWS V14.01,2013-01-12 03:20:00,
2013-01-11 22:21:00,57.3,56.2,30.15,WSW,248,4.0,5.0,96,0.00,,---,0.11,VWS V14.01,2013-01-12 03:21:00,
2013-01-11 22:22:00,57.5,56.7,30.15,WSW,248,4.0,5.0,97,0.00,,---,0.11,VWS V14.01,2013-01-12 03:22:00,
2013-01-11 22:23:00,57.1,56.0,30.15,WSW,248,5.0,5.0,96,0.00,,---,0.11,VWS V14.01,2013-01-12 03:23:00,
2013-01-11 22:24:00,57.0,55.9,30.15,WSW,248,3.0,5.0,96,0.00,,---,0.11,VWS V14.01,2013-01-12 03:24:00,
2013-01-11 22:25:00,56.8,55.7,30.15,WSW,248,5.0,5.0,96,0.00,,---,0.11,VWS V14.01,2013-01-12 03:25:00,
2013-01-11 22:26:00,56.7,55.6,30.15,WSW,248,5.0,5.0,96,0.00,,---,0.11,VWS V14.01,2013-01-12 03:26:00,
2013-01-11 22:27:00,57.3,56.5,30.15,WSW,248,5.0,6.0,97,0.00,,---,0.11,VWS V14.01,2013-01-12 03:27:00,
2013-01-11 22:28:00,56.6,55.5,30.15,WSW,248,4.0,5.0,96,0.00,,---,0.11,VWS V14.01,2013-01-12 03:28:00,
2013-01-11 22:29:00,56.5,55.4,30.14,WSW,248,4.0,5.0,96,0.00,,---,0.11,VWS V14.01,2013-01-12 03:29:00,
2013-01-11 22:30:00,56.5,55.4,30.14,WSW,248,5.0,5.0,96,0.00,,---,0.11,VWS V14.01,2013-01-12 03:30:00,
2013-01-11 22:31:00,56.4,55.3,30.14,WSW,248,4.0,5.0,96,0.00,,---,0.11,VWS V14.01,2013-01-12 03:31:00,
2013-01-11 22:32:00,57.1,56.0,30.15,WSW,248,5.0,5.0,96,0.00,,---,0.11,VWS V14.01,2013-01-12 03:32:00,
2013-01-11 22:33:00,56.2,55.1,30.14,WSW,248,4.0,5.0,96,0.00,,---,0.11,VWS V14.01,2013-01-12 03:33:00,
2013-01-11 22:34:00,56.2,55.1,30.14,WSW,248,4.0,5.0,96,0.00,,---,0.11,VWS V14.01,2013-01-12 03:34:00,
2013-01-11 22:35:00,56.2,55.1,30.14,WSW,248,4.0,4.0,96,0.00,,---,0.11,VWS V14.01,2013-01-12 03:35:00,
2013-01-11 22:36:00,56.1,55.0,30.14,WSW,248,5.0,6.0,96,0.00,,---,0.11,VWS V14.01,2013-01-12 03:36:00,
2013-01-11 22:37:00,56.6,55.5,30.15,WSW,248,3.0,5.0,96,0.00,,---,0.11,VWS V14.01,2013-01-12 03:37:00,
2013-01-11 22:38:00,56.0,54.9,30.14,WSW,248,5.0,6.0,96,0.00,,---,0.11,VWS V14.01,2013-01-12 03:38:00,
2013-01-11 22:39:00,55.9,54.8,30.14,WSW,248,5.0,6.0,96,0.00,,---,0.11,VWS V14.01,2013-01-12 03:39:00,
2013-01-11 22:40:00,55.8,54.7,30.14,WSW,248,5.0,5.0,96,0.00,,---,0.11,VWS V14.01,2013-01-12 03:40:00,
2013-01-11 22:41:00,55.7,54.6,30.14,WSW,248,5.0,5.0,96,0.00,,---,0.11,VWS V14.01,2013-01-12 03:41:00,
2013-01-11 22:42:00,56.2,55.1,30.14,WSW,248,4.0,5.0,96,0.00,,---,0.11,VWS V14.01,2013-01-12 03:42:00,
2013-01-11 22:43:00,55.5,54.4,30.14,WSW,248,4.0,5.0,96,0.00,,---,0.11,VWS V14.01,2013-01-12 03:43:00,
2013-01-11 22:44:00,55.5,54.4,30.14,WSW,248,4.0,5.0,96,0.00,,---,0.11,VWS V14.01,2013-01-12 03:44:00,
2013-01-11 22:45:00,55.5,54.4,30.14,WSW,248,4.0,5.0,96,0.00,,---,0.11,VWS V14.01,2013-01-12 03:45:00,
2013-01-11 22:46:00,55.4,54.3,30.14,WSW,248,4.0,5.0,96,0.00,,---,0.11,VWS V14.01,2013-01-12 03:46:00,
2013-01-11 22:47:00,56.0,54.9,30.14,WSW,248,4.0,6.0,96,0.00,,---,0.11,VWS V14.01,2013-01-12 03:47:00,
2013-01-11 22:48:00,55.3,54.2,30.14,WSW,248,4.0,5.0,96,0.00,,---,0.11,VWS V14.01,2013-01-12 03:48:00,
2013-01-11 22:49:00,55.3,54.2,30.14,WSW,248,0.0,5.0,96,0.00,,---,0.11,VWS V14.01,2013-01-12 03:49:00,
2013-01-11 22:50:00,55.2,54.1,30.14,WSW,248,3.0,4.0,96,0.00,,---,0.11,VWS V14.01,2013-01-12 03:50:00,
2013-01-11 22:51:00,55.1,54.0,30.14,WSW,248,2.0,4.0,96,0.00,,---,0.11,VWS V14.01,2013-01-12 03:51:00,
2013-01-11 22:52:00,55.6,54.5,30.14,WSW,248,4.0,5.0,96,0.00,,---,0.11,VWS V14.01,2013-01-12 03:52:00,
2013-01-11 22:53:00,55.1,54.3,30.14,WSW,248,0.0,4.0,97,0.00,,---,0.11,VWS V14.01,2013-01-12 03:53:00,
2013-01-11 22:54:00,55.0,54.2,30.14,WSW,248,0.0,4.0,97,0.00,,---,0.11,VWS V14.01,2013-01-12 03:54:00,
2013-01-11 22:55:00,55.0,54.2,30.14,WSW,248,0.0,0.0,97,0.00,,---,0.11,VWS V14.01,2013-01-12 03:55:00,
2013-01-11 22:56:00,55.0,54.2,30.14,WSW,248,0.0,0.0,97,0.00,,---,0.11,VWS V14.01,2013-01-12 03:56:00,
2013-01-11 22:57:00,55.3,54.2,30.14,WSW,248,3.0,5.0,96,0.00,,---,0.11,VWS V14.01,2013-01-12 03:57:00,
2013-01-11 22:58:00,55.1,54.3,30.14,WSW,248,0.0,0.0,97,0.00,,---,0.11,VWS V14.01,2013-01-12 03:58:00,
2013-01-11 22:59:00,55.1,54.3,30.14,WSW,248,0.0,0.0,97,0.00,,---,0.11,VWS V14.01,2013-01-12 03:59:00,
2013-01-11 23:00:00,55.1,54.3,30.14,WSW,248,0.0,0.0,97,0.00,,---,0.11,VWS V14.01,2013-01-12 04:00:00,
2013-01-11 23:01:00,55.1,54.3,30.14,WSW,248,3.0,4.0,97,0.00,,---,0.11,VWS V14.01,2013-01-12 04:01:00,
2013-01-11 23:02:00,55.1,54.0,30.14,WSW,248,0.0,4.0,96,0.00,,---,0.11,VWS V14.01,2013-01-12 04:02:00,
2013-01-11 23:03:00,55.3,54.5,30.14,WSW,248,3.0,4.0,97,0.00,,---,0.11,VWS V14.01,2013-01-12 04:03:00,
2013-01-11 23:04:00,55.4,54.6,30.14,WSW,248,4.0,5.0,97,0.00,,---,0.11,VWS V14.01,2013-01-12 04:04:00,
2013-01-11 23:05:00,55.5,54.7,30.14,WSW,248,3.0,5.0,97,0.00,,---,0.11,VWS V14.01,2013-01-12 04:05:00,
2013-01-11 23:06:00,55.5,54.7,30.14,WSW,248,5.0,5.0,97,0.00,,---,0.11,VWS V14.01,2013-01-12 04:06:00,
2013-01-11 23:07:00,55.1,54.3,30.14,WSW,248,0.0,0.0,97,0.00,,---,0.11,VWS V14.01,2013-01-12 04:07:00,
2013-01-11 23:08:00,55.6,54.8,30.14,WSW,248,4.0,5.0,97,0.00,,---,0.11,VWS V14.01,2013-01-12 04:08:00,
2013-01-11 23:09:00,55.6,54.8,30.14,WSW,248,5.0,5.0,97,0.00,,---,0.11,VWS V14.01,2013-01-12 04:09:00,
2013-01-11 23:10:00,55.5,54.7,30.14,WSW,248,3.0,5.0,97,0.00,,---,0.11,VWS V14.01,2013-01-12 04:10:00,
2013-01-11 23:11:00,55.4,54.6,30.14,WSW,248,0.0,5.0,97,0.00,,---,0.11,VWS V14.01,2013-01-12 04:11:00,
2013-01-11 23:12:00,55.3,54.5,30.14,WSW,248,4.0,4.0,97,0.00,,---,0.11,VWS V14.01,2013-01-12 04:12:00,
2013-01-11 23:13:00,55.3,54.2,30.14,WSW,248,3.0,5.0,96,0.00,,---,0.11,VWS V14.01,2013-01-12 04:13:00,
2013-01-11 23:14:00,55.3,54.2,30.13,WSW,248,3.0,5.0,96,0.00,,---,0.11,VWS V14.01,2013-01-12 04:14:00,
2013-01-11 23:15:00,55.2,54.1,30.13,WSW,248,2.0,3.0,96,0.00,,---,0.11,VWS V14.01,2013-01-12 04:15:00,
2013-01-11 23:16:00,55.2,54.4,30.13,WSW,248,0.0,4.0,97,0.00,,---,0.11,VWS V14.01,2013-01-12 04:16:00,
2013-01-11 23:17:00,55.6,54.8,30.14,WSW,248,4.0,5.0,97,0.00,,---,0.11,VWS V14.01,2013-01-12 04:17:00,
2013-01-11 23:18:00,55.1,54.3,30.13,WSW,248,4.0,4.0,97,0.00,,---,0.11,VWS V14.01,2013-01-12 04:18:00,
2013-01-11 23:19:00,55.1,54.3,30.13,WSW,248,3.0,4.0,97,0.00,,---,0.11,VWS V14.01,2013-01-12 04:19:00,
2013-01-11 23:20:00,55.1,54.3,30.13,WSW,248,0.0,4.0,97,0.00,,---,0.11,VWS V14.01,2013-01-12 04:20:00,
2013-01-11 23:21:00,55.1,54.3,30.13,WSW,248,0.0,4.0,97,0.00,,---,0.11,VWS V14.01,2013-01-12 04:21:00,
2013-01-11 23:22:00,55.3,54.2,30.14,WSW,248,2.0,5.0,96,0.00,,---,0.11,VWS V14.01,2013-01-12 04:22:00,
2013-01-11 23:23:00,55.2,54.4,30.13,WSW,248,3.0,4.0,97,0.00,,---,0.11,VWS V14.01,2013-01-12 04:23:00,
2013-01-11 23:24:00,55.2,54.4,30.13,WSW,248,3.0,5.0,97,0.00,,---,0.11,VWS V14.01,2013-01-12 04:24:00,
2013-01-11 23:25:00,55.3,54.5,30.13,WSW,248,3.0,4.0,97,0.00,,---,0.11,VWS V14.01,2013-01-12 04:25:00,
2013-01-11 23:26:00,55.4,54.6,30.13,WSW,248,4.0,4.0,97,0.00,,---,0.11,VWS V14.01,2013-01-12 04:26:00,
2013-01-11 23:27:00,55.1,54.3,30.13,WSW,248,3.0,4.0,97,0.00,,---,0.11,VWS V14.01,2013-01-12 04:27:00,
2013-01-11 23:28:00,55.4,54.6,30.13,WSW,248,0.0,4.0,97,0.00,,---,0.11,VWS V14.01,2013-01-12 04:28:00,
2013-01-11 23:29:00,55.3,54.5,30.13,WSW,248,0.0,4.0,97,0.00,,---,0.11,VWS V14.01,2013-01-12 04:29:00,
2013-01-11 23:30:00,55.2,54.4,30.13,WSW,248,3.0,4.0,97,0.00,,---,0.11,VWS V14.01,2013-01-12 04:30:00,
2013-01-11 23:31:00,55.1,54.3,30.13,WSW,248,4.0,4.0,97,0.00,,---,0.11,VWS V14.01,2013-01-12 04:31:00,
2013-01-11 23:32:00,55.2,54.4,30.13,WSW,248,3.0,4.0,97,0.00,,---,0.11,VWS V14.01,2013-01-12 04:32:00,
2013-01-11 23:33:00,55.0,54.2,30.13,WSW,248,2.0,4.0,97,0.00,,---,0.11,VWS V14.01,2013-01-12 04:33:00,
2013-01-11 23:34:00,54.9,54.1,30.13,WSW,248,2.0,4.0,97,0.00,,---,0.11,VWS V14.01,2013-01-12 04:34:00,
2013-01-11 23:35:00,54.9,54.1,30.13,WSW,248,2.0,3.0,97,0.00,,---,0.11,VWS V14.01,2013-01-12 04:35:00,
2013-01-11 23:36:00,54.8,53.7,30.13,WSW,248,3.0,4.0,96,0.00,,---,0.11,VWS V14.01,2013-01-12 04:36:00,
2013-01-11 23:37:00,55.4,54.6,30.13,WSW,248,3.0,4.0,97,0.00,,---,0.11,VWS V14.01,2013-01-12 04:37:00,
2013-01-11 23:38:00,54.7,53.6,30.13,WSW,248,0.0,4.0,96,0.00,,---,0.11,VWS V14.01,2013-01-12 04:38:00,
2013-01-11 23:39:00,54.6,53.5,30.13,WSW,248,4.0,4.0,96,0.00,,---,0.11,VWS V14.01,2013-01-12 04:39:00,
2013-01-11 23:40:00,54.6,53.8,30.13,WSW,248,3.0,3.0,97,0.00,,---,0.11,VWS V14.01,2013-01-12 04:40:00,
2013-01-11 23:41:00,54.7,53.9,30.13,WSW,248,2.0,3.0,97,0.00,,---,0.11,VWS V14.01,2013-01-12 04:41:00,
2013-01-11 23:42:00,55.0,54.2,30.13,WSW,248,2.0,4.0,97,0.00,,---,0.11,VWS V14.01,2013-01-12 04:42:00,
2013-01-11 23:43:00,54.9,54.1,30.13,WSW,248,3.0,4.0,97,0.00,,---,0.11,VWS V14.01,2013-01-12 04:43:00,
2013-01-11 23:44:00,55.0,54.2,30.13,WSW,248,4.0,5.0,97,0.00,,---,0.11,VWS V14.01,2013-01-12 04:44:00,
2013-01-11 23:45:00,55.0,54.2,30.13,WSW,248,4.0,5.0,97,0.00,,---,0.11,VWS V14.01,2013-01-12 04:45:00,
2013-01-11 23:46:00,55.0,54.2,30.13,WSW,248,3.0,5.0,97,0.00,,---,0.11,VWS V14.01,2013-01-12 04:46:00,
2013-01-11 23:47:00,54.7,53.6,30.13,WSW,248,0.0,4.0,96,0.00,,---,0.11,VWS V14.01,2013-01-12 04:47:00,
2013-01-11 23:48:00,54.9,54.1,30.13,WSW,248,4.0,5.0,97,0.00,,---,0.11,VWS V14.01,2013-01-12 04:48:00,
2013-01-11 23:49:00,54.9,54.1,30.13,WSW,248,2.0,5.0,97,0.00,,---,0.11,VWS V14.01,2013-01-12 04:49:00,
2013-01-11 23:50:00,54.8,54.0,30.13,WSW,248,3.0,4.0,97,0.00,,---,0.11,VWS V14.01,2013-01-12 04:50:00,
2013-01-11 23:51:00,54.8,54.0,30.13,WSW,248,3.0,4.0,97,0.00,,---,0.11,VWS V14.01,2013-01-12 04:51:00,
2013-01-11 23:52:00,54.8,54.0,30.13,WSW,248,4.0,4.0,97,0.00,,---,0.11,VWS V14.01,2013-01-12 04:52:00,
2013-01-11 23:53:00,54.7,53.9,30.13,WSW,248,3.0,4.0,97,0.00,,---,0.11,VWS V14.01,2013-01-12 04:53:00,
2013-01-11 23:54:00,54.7,53.9,30.13,WSW,248,2.0,4.0,97,0.00,,---,0.11,VWS V14.01,2013-01-12 04:54:00,
2013-01-11 23:55:00,54.6,53.8,30.13,WSW,248,3.0,4.0,97,0.00,,---,0.11,VWS V14.01,2013-01-12 04:55:00,
2013-01-11 23:56:00,54.6,53.8,30.13,WSW,248,2.0,4.0,97,0.00,,---,0.11,VWS V14.01,2013-01-12 04:56:00,
2013-01-11 23:57:00,55.0,54.2,30.13,WSW,248,4.0,5.0,97,0.00,,---,0.11,VWS V14.01,2013-01-12 04:57:00,
2013-01-11 23:58:00,54.6,53.8,30.13,WSW,248,0.0,4.0,97,0.00,,---,0.11,VWS V14.01,2013-01-12 04:58:00,
2013-01-11 23:59:00,54.6,53.8,30.13,WSW,248,0.0,4.0,97,0.00,,---,0.11,VWS V14.01,2013-01-12 04:59:00,